Weather in Morelia

Mexico     19°42′10″N   101°11′25″W
temp.,
°C
wind,
m/s
gust,
m/s
humid.,
%
clouds,
%
prec.,
mm/h
press.,
hPa
HPBL,
m
17 april, sat
sat1701:00+16sw22310 0.0 101426
04:00+14sw22340 0.0 101313
07:00+12wsw11390 0.0 101410
10:00+22sse23230 0.0 1013768
13:00+28sse57150 0.0 10093021
16:00+28s76130 0.0 10063319
19:00+25ssw55153 0.0 10072197
22:00+15sw22310 0.0 101435
18 april, sun
sun1801:00+12ssw22340 0.0 101620
04:00+10sw22280 0.0 101512
07:00+9sw22200 0.0 101710
10:00+20sse23100 0.0 1014637
13:00+27sse5770 0.0 10102627
16:00+29ssw6740 0.0 10063171
19:00+24s6775 0.0 10081434
22:00+14ssw22160 0.0 101528
19 april, mon
mon1901:00+12sw22212 0.0 101626
04:00+11sw22230 0.0 101511
07:00+9sw11260 0.0 101610
10:00+21sse23115 0.0 1014629
13:00+27sse57749 0.0 10102905
16:00+28ssw677100 0.0 10073185
19:00+23s579100 0.0 10091513
22:00+14ssw22192 0.0 101524
20 april, tue
tue2001:00+12sw22233 0.0 101720
04:00+11sw222583 0.0 101611
07:00+10sw222827 0.0 101710
10:00+21sse23110 0.0 1015703
13:00+27sse4680 0.0 10112593
16:00+29ssw5570 0.0 10083252
19:00+25s5695 0.0 10091724
22:00+15sw22195 0.0 101627
21 april, wed
wed2101:00+13sw22215 0.0 101722
04:00+11wsw112443 0.0 101710
07:00+10wsw11263 0.0 101810
10:00+22e11146 0.0 1017613
13:00+28se3495 0.0 10132453
16:00+29sse6685 0.0 10093223
19:00+26s55100 0.0 10091432
22:00+15sw32230 0.0 101635